W2CS Weather Reports


time (UTC)temp
F
wind
direction
speed
knots
gust
knots
rain 1hr
in
rain 24hr
in
rain mn
in
humidity
%
barometer
mb
20260507213053 62 347 0.9 2.6 0.00 0.00 0.00 47 1005.8
20260507212542 62 347 0.0 5.2 0.00 0.00 0.00 49 1005.7
20260507212039 62 0 0.0 5.2 0.00 0.00 0.00 46 1005.7
20260507211600 62 3 0.0 2.6 0.00 0.00 0.00 45 1005.7
20260507211039 62 286 0.9 1.7 0.00 0.00 0.00 50 1005.7
20260507210539 62 0 0.0 1.7 0.00 0.00 0.00 48 1005.7
20260507210054 62 0 0.0 1.7 0.00 0.00 0.00 51 1005.6
20260507205538 62 282 0.0 1.7 0.00 0.00 0.00 54 1005.4
20260507205039 61 0 0.0 3.5 0.00 0.00 0.00 54 1005.5
20260507204554 61 282 0.9 3.5 0.00 0.00 0.00 54 1005.4
20260507204038 61 280 0.0 3.5 0.00 0.00 0.00 66 1005.3
20260507203539 60 35 0.9 4.3 0.00 0.00 0.00 67 1005.4
20260507203053 60 300 0.9 4.3 0.00 0.00 0.00 63 1005.4
20260507202543 61 119 0.9 4.3 0.00 0.00 0.00 64 1005.3
20260507202039 62 25 0.0 1.7 0.00 0.00 0.00 68 1005.2
20260507201552 62 0 0.0 1.7 0.00 0.00 0.00 68 1005.2
20260507201039 62 0 0.0 2.6 0.00 0.00 0.00 66 1005.2
20260507200539 62 0 0.0 2.6 0.00 0.00 0.00 63 1005.2
20260507200052 63 40 0.0 2.6 0.00 0.00 0.00 63 1005.0
20260507195539 63 288 0.9 1.7 0.00 0.00 0.00 63 1005.1
20260507195039 63 0 0.0 1.7 0.00 0.00 0.00 66 1005.1
20260507194557 64 278 0.0 0.9 0.00 0.00 0.00 67 1005.3
20260507194039 64 0 0.0 0.9 0.00 0.00 0.00 64 1005.4
20260507193539 65 0 0.0 0.9 0.00 0.00 0.00 67 1005.6
20260507193057 65 0 0.0 0.9 0.00 0.00 0.00 66 1005.6
20260507192539 66 278 0.0 1.7 0.00 0.00 0.00 66 1005.7
20260507192041 66 278 0.0 1.7 0.00 0.00 0.00 66 1005.8
20260507191550 66 278 0.0 1.7 0.00 0.00 0.00 65 1005.8
20260507191040 66 0 0.0 1.7 0.00 0.00 0.00 68 1005.9
20260507190539 66 221 0.0 1.7 0.00 0.00 0.00 65 1006.0
20260507190055 67 0 0.0 1.7 0.00 0.00 0.00 68 1006.1
20260507185538 67 139 0.0 1.7 0.00 0.00 0.00 70 1006.1
20260507185039 66 0 0.0 1.7 0.00 0.00 0.00 73 1006.1
20260507184550 66 0 0.0 1.7 0.00 0.00 0.00 71 1006.2
20260507184040 66 222 0.0 1.7 0.00 0.00 0.00 74 1006.3
20260507183539 65 0 0.0 1.7 0.00 0.00 0.00 71 1006.4
20260507183050 65 31 0.0 1.7 0.00 0.00 0.00 71 1006.5
20260507182539 65 0 0.9 2.6 0.00 0.00 0.00 70 1006.4
20260507182040 64 0 0.0 2.6 0.00 0.00 0.00 76 1006.8
20260507181553 64 0 0.9 2.6 0.00 0.00 0.00 73 1006.7
20260507181039 64 31 0.9 2.6 0.00 0.00 0.00 76 1006.8
20260507180543 65 31 0.9 2.6 0.00 0.00 0.00 71 1006.9
20260507180050 65 0 0.9 3.5 0.00 0.00 0.00 80 1006.8
20260507175539 64 37 0.9 3.5 0.00 0.00 0.00 78 1006.8
20260507175039 63 349 0.9 2.6 0.00 0.00 0.00 78 1006.9
20260507174622 62 10 0.9 6.1 0.00 0.00 0.00 79 1006.8
20260507174038 61 182 0.9 6.1 0.00 0.00 0.00 81 1006.8
20260507173539 61 193 0.9 7.0 0.00 0.00 0.00 67 1006.8
20260507173055 61 247 0.9 7.0 0.00 0.00 0.00 61 1006.9
20260507172540 61 158 0.9 2.6 0.00 0.00 0.00 67 1007.1
20260507172038 61 329 0.9 2.6 0.00 0.00 0.00 68 1007.3
20260507171608 61 344 0.0 2.6 0.00 0.00 0.00 68 1007.3
20260507171039 62 0 0.0 2.6 0.00 0.00 0.00 71 1007.4
20260507170539 62 0 0.9 3.5 0.00 0.00 0.00 67 1007.4
20260507170051 62 335 0.9 5.2 0.00 0.00 0.00 68 1007.4
20260507165541 62 355 0.9 5.2 0.00 0.00 0.00 67 1007.4
20260507165039 63 222 0.9 2.6 0.00 0.00 0.00 67 1007.6
20260507164552 62 330 0.9 1.7 0.00 0.00 0.00 70 1007.6
20260507164039 61 0 0.0 1.7 0.00 0.00 0.00 77 1007.6
20260507163538 61 345 0.0 2.6 0.00 0.00 0.00 70 1007.7
20260507163048 61 321 0.9 2.6 0.00 0.00 0.00 74 1007.6
20260507162539 61 0 0.0 1.7 0.00 0.00 0.00 74 1007.6
20260507162039 61 144 0.0 2.6 0.00 0.00 0.00 73 1007.6
20260507161553 61 145 0.0 4.3 0.00 0.00 0.00 73 1007.8
20260507161037 62 71 0.9 4.3 0.00 0.00 0.00 73 1007.8
20260507160540 62 143 0.9 2.6 0.00 0.00 0.00 72 1007.8
20260507160114 61 282 0.9 4.3 0.00 0.00 0.00 76 1007.8
20260507155538 61 0 0.9 5.2 0.00 0.00 0.00 74 1007.9
20260507155039 61 85 0.9 5.2 0.00 0.00 0.00 76 1007.9
20260507154551 61 101 0.9 3.5 0.00 0.00 0.00 79 1008.0
20260507154038 61 0 0.0 3.5 0.00 0.00 0.00 80 1008.2
20260507153538 61 0 0.0 2.6 0.00 0.00 0.00 78 1008.1
20260507153048 60 51 0.9 3.5 0.00 0.00 0.00 82 1008.1
20260507152541 60 137 0.0 3.5 0.00 0.00 0.00 81 1008.2
20260507152040 60 137 0.9 3.5 0.00 0.00 0.00 78 1008.2
20260507151555 60 26 0.9 2.6 0.00 0.00 0.00 81 1008.3
20260507151039 59 293 0.0 2.6 0.00 0.00 0.00 84 1008.3
20260507150539 58 0 0.0 3.5 0.00 0.00 0.00 83 1008.2
20260507150051 58 9 0.9 3.5 0.00 0.00 0.00 86 1008.3
20260507145544 57 182 0.9 2.6 0.00 0.00 0.00 85 1008.3
20260507145039 57 328 0.0 2.6 0.00 0.00 0.00 86 1008.3
20260507144553 57 328 0.0 2.6 0.00 0.00 0.00 87 1008.3
20260507144039 56 181 0.0 2.6 0.00 0.00 0.00 90 1008.2
20260507143538 55 230 0.9 2.6 0.00 0.00 0.00 90 1008.1
20260507143054 54 85 0.0 2.6 0.00 0.00 0.00 92 1008.2
20260507142538 54 85 0.0 2.6 0.00 0.00 0.00 93 1008.2
20260507142038 54 0 0.0 2.6 0.00 0.00 0.00 94 1008.4
20260507141602 53 0 0.0 2.6 0.00 0.00 0.00 93 1008.3
20260507141039 53 0 0.0 0.9 0.00 0.00 0.00 94 1008.3
20260507140539 53 0 0.0 0.9 0.00 0.00 0.00 94 1008.5
20260507140109 53 0 0.0 0.9 0.00 0.00 0.00 94 1008.8
20260507135539 52 0 0.0 2.6 0.00 0.00 0.00 94 1008.7
20260507135039 52 0 0.0 2.6 0.00 0.00 0.00 94 1008.6
20260507134550 52 247 0.0 3.5 0.00 0.00 0.00 94 1008.4
20260507134039 52 0 0.9 3.5 0.00 0.00 0.00 94 1008.5
20260507133539 52 0 0.0 1.7 0.00 0.00 0.00 95 1008.6
20260507133059 51 0 0.0 1.7 0.00 0.00 0.00 95 1008.6
20260507132539 51 0 0.0 0.9 0.00 0.00 0.00 95 1008.5
20260507132038 51 0 0.0 0.9 0.00 0.00 0.00 95 1008.6
20260507131613 51 0 0.0 1.7 0.00 0.00 0.00 95 1008.6
20260507131039 51 0 0.0 1.7 0.00 0.00 0.00 95 1008.6
20260507130541 50 0 0.0 0.9 0.00 0.00 0.00 95 1008.6
20260507130049 50 201 0.0 0.9 0.00 0.00 0.00 95 1008.6
20260507125538 50 201 0.0 0.0 0.00 0.00 0.00 95 1008.3
20260507125040 50 0 0.0 0.0 0.00 0.00 0.00 95 1008.4
20260507124554 50 0 0.0 0.9 0.00 0.00 0.00 95 1008.5
20260507124039 49 0 0.0 0.9 0.00 0.00 0.00 95 1008.4
20260507123539 49 0 0.0 0.9 0.00 0.00 0.00 95 1008.3
20260507123047 49 0 0.0 0.9 0.00 0.00 0.00 95 1008.5
20260507122538 49 203 0.0 0.9 0.00 0.00 0.00 95 1008.7
20260507122042 49 0 0.0 0.9 0.00 0.00 0.00 95 1008.7
20260507121556 49 0 0.0 0.9 0.00 0.00 0.00 95 1008.7
20260507121039 48 0 0.0 0.9 0.00 0.00 0.00 94 1008.8
20260507120538 48 0 0.0 0.9 0.00 0.00 0.00 94 1008.8
20260507120047 48 0 0.0 0.9 0.00 0.00 0.00 94 1008.6
20260507115539 48 0 0.0 0.0 0.00 0.00 0.00 95 1008.6
20260507115038 48 0 0.0 0.9 0.00 0.00 0.00 95 1008.3
20260507114548 48 0 0.0 0.9 0.00 0.00 0.00 95 1008.5
20260507114046 48 0 0.0 1.7 0.00 0.00 0.00 95 1008.5
20260507113540 48 0 0.0 1.7 0.00 0.00 0.00 95 1008.6
20260507113109 48 0 0.0 1.7 0.00 0.00 0.00 95 1008.5
20260507112543 48 0 0.0 1.7 0.00 0.00 0.00 95 1008.2
20260507112038 48 0 0.0 1.7 0.00 0.00 0.00 95 1008.3
20260507111545 48 0 0.0 1.7 0.00 0.00 0.00 94 1008.2
20260507111038 48 0 0.0 1.7 0.00 0.00 0.00 94 1008.5
20260507110539 48 0 0.0 1.7 0.00 0.00 0.00 94 1009.0
20260507110048 49 0 0.0 2.6 0.00 0.00 0.00 94 1008.8
20260507105538 49 0 0.0 2.6 0.00 0.00 0.00 94 1008.6
20260507105038 49 0 0.0 0.9 0.00 0.00 0.00 94 1007.7
20260507104600 49 0 0.0 1.7 0.00 0.00 0.00 94 1007.4
20260507104039 49 0 0.0 1.7 0.00 0.00 0.00 94 1007.3
20260507103539 49 0 0.0 3.5 0.00 0.00 0.00 94 1007.3
20260507103050 49 0 0.0 3.5 0.00 0.00 0.00 94 1007.3
20260507102538 49 0 0.0 0.9 0.00 0.00 0.00 94 1007.4
20260507102038 49 0 0.0 1.7 0.00 0.00 0.00 94 1007.5
20260507101553 49 0 0.0 1.7 0.00 0.00 0.00 94 1007.6
20260507101037 49 0 0.0 1.7 0.00 0.00 0.00 94 1007.2
20260507100539 49 0 0.0 1.7 0.00 0.00 0.00 94 1007.2
20260507100057 49 0 0.0 0.9 0.00 0.00 0.00 94 1007.2
20260507095542 49 0 0.0 0.9 0.00 0.00 0.00 94 1007.3
20260507095042 49 0 0.0 2.6 0.00 0.00 0.00 94 1007.4
20260507094604 50 0 0.0 2.6 0.00 0.00 0.00 94 1007.1
20260507094041 50 0 0.0 0.0 0.00 0.00 0.00 94 1007.1
20260507093539 50 0 0.0 0.9 0.00 0.00 0.00 94 1007.2
20260507093050 50 0 0.0 0.9 0.00 0.00 0.00 94 1007.2
20260507092539 50 0 0.0 0.9 0.00 0.00 0.00 94 1007.2
20260507092038 51 0 0.0 0.9 0.00 0.00 0.00 94 1007.0
20260507091552 51 0 0.0 0.0 0.00 0.00 0.00 94 1007.0
20260507091041 51 0 0.0 0.9 0.00 0.00 0.00 94 1007.1
20260507090540 51 0 0.0 0.9 0.00 0.00 0.00 94 1007.4
20260507090049 51 0 0.0 0.9 0.00 0.00 0.00 95 1007.4
20260507085540 52 0 0.0 2.6 0.00 0.00 0.00 95 1007.2
20260507085039 52 0 0.0 3.5 0.00 0.00 0.00 95 1006.9
20260507084557 52 340 0.0 3.5 0.00 0.00 0.00 95 1006.7
20260507084038 52 0 0.0 0.9 0.00 0.00 0.00 95 1007.3
20260507083540 52 0 0.0 0.0 0.00 0.00 0.00 95 1006.9
20260507083047 52 0 0.0 0.0 0.00 0.00 0.00 95 1006.6
20260507082538 52 0 0.0 0.0 0.00 0.00 0.00 95 1006.7
20260507082040 52 0 0.0 0.0 0.00 0.00 0.00 95 1006.8
20260507081550 52 0 0.0 1.7 0.00 0.00 0.00 95 1006.9
20260507081038 52 0 0.0 1.7 0.00 0.00 0.00 95 1006.6
20260507080539 52 178 0.0 1.7 0.00 0.00 0.00 95 1007.1
20260507080055 52 0 0.0 0.0 0.00 0.00 0.00 95 1007.4
20260507075540 52 0 0.0 0.0 0.00 0.00 0.00 95 1007.2
20260507075049 52 0 0.0 0.0 0.00 0.00 0.00 95 1006.6
20260507074552 52 0 0.0 0.0 0.00 0.00 0.00 95 1006.3
20260507074039 52 0 0.0 0.0 0.00 0.00 0.00 95 1006.2
20260507073539 52 0 0.0 0.0 0.00 0.00 0.00 95 1006.1
20260507073053 52 0 0.0 0.0 0.00 0.00 0.00 95 1006.1
20260507072539 52 0 0.0 0.0 0.00 0.00 0.00 95 1006.1
20260507072038 52 0 0.0 0.0 0.00 0.00 0.00 95 1006.0
20260507071549 52 0 0.0 0.0 0.00 0.00 0.00 95 1006.1
20260507071039 52 0 0.0 0.0 0.00 0.00 0.00 95 1006.2
20260507070539 52 0 0.0 0.0 0.00 0.00 0.00 95 1006.2
20260507070105 52 0 0.0 0.0 0.00 0.00 0.00 95 1006.2
20260507065538 52 0 0.0 0.0 0.00 0.00 0.00 95 1006.2
20260507065038 52 0 0.0 0.0 0.00 0.00 0.00 95 1006.5
20260507064553 52 0 0.0 0.0 0.00 0.00 0.00 95 1006.6
20260507064038 52 0 0.0 0.0 0.00 0.00 0.00 95 1006.4
20260507063538 52 0 0.0 0.0 0.00 0.00 0.00 95 1006.4
20260507063053 52 0 0.0 0.0 0.00 0.00 0.00 95 1006.4
20260507062539 52 0 0.0 0.9 0.00 0.00 0.00 95 1006.4
20260507062040 52 0 0.0 0.9 0.00 0.00 0.00 94 1006.3
20260507061549 52 346 0.0 0.0 0.00 0.00 0.00 94 1006.2
20260507061038 52 0 0.0 0.0 0.00 0.00 0.00 95 1006.5
20260507060539 52 0 0.0 0.0 0.00 0.00 0.00 95 1006.7
20260507060050 52 0 0.0 0.0 0.00 0.00 0.00 95 1006.7
20260507055540 52 0 0.0 0.0 0.00 0.00 0.00 95 1006.9
20260507055038 52 0 0.0 0.0 0.00 0.00 0.00 95 1006.9
20260507054547 52 0 0.0 0.0 0.00 0.00 0.00 95 1006.9
20260507054038 52 0 0.0 0.9 0.00 0.00 0.00 95 1007.0
20260507053538 52 0 0.0 0.9 0.00 0.00 0.00 95 1006.9
20260507053047 52 0 0.0 0.9 0.00 0.00 0.00 95 1007.1
20260507052540 52 0 0.0 0.9 0.00 0.00 0.00 95 1007.3
20260507052039 52 346 0.0 0.9 0.00 0.00 0.00 95 1007.4
20260507051550 52 0 0.0 1.7 0.00 0.00 0.00 95 1007.4
20260507051039 52 0 0.0 1.7 0.00 0.00 0.00 95 1007.3
20260507050540 52 346 0.0 1.7 0.00 0.00 0.00 95 1007.5
20260507050107 52 0 0.0 0.9 0.00 0.00 0.00 95 1007.5
20260507045539 52 0 0.0 1.7 0.00 0.00 0.00 95 1007.4
20260507045039 52 0 0.0 1.7 0.00 0.00 0.00 94 1007.3
20260507044555 52 0 0.0 1.7 0.00 0.00 0.00 94 1007.4
20260507044041 52 346 0.0 1.7 0.00 0.00 0.00 94 1007.4
20260507043538 53 346 0.0 1.7 0.00 0.00 0.00 94 1007.4
20260507043051 53 346 0.0 1.7 0.00 0.00 0.00 94 1007.6
20260507042543 53 0 0.0 0.9 0.00 0.00 0.00 94 1007.4
20260507042041 53 0 0.0 1.7 0.00 0.00 0.00 94 1007.4
20260507041550 53 0 0.0 1.7 0.00 0.00 0.00 94 1007.5
20260507041038 53 346 0.0 1.7 0.00 0.00 0.00 94 1007.5
20260507040539 53 0 0.0 1.7 0.00 0.00 0.00 94 1007.4
20260507040051 53 346 0.9 1.7 0.00 0.00 0.00 94 1007.6
20260507035539 53 0 0.0 1.7 0.00 0.00 0.00 94 1007.7
20260507035041 53 346 0.0 1.7 0.00 0.00 0.00 94 1007.7
20260507034550 53 346 0.0 1.7 0.00 0.00 0.00 94 1007.6
20260507034039 53 346 0.0 1.7 0.00 0.00 0.00 94 1007.7
20260507033537 53 346 0.0 1.7 0.00 0.00 0.00 94 1007.7
20260507033050 53 346 0.0 2.6 0.00 0.00 0.00 94 1007.8
20260507032538 53 346 0.9 2.6 0.00 0.00 0.00 94 1007.8
20260507032038 53 264 0.9 2.6 0.00 0.00 0.00 94 1007.8
20260507031548 53 265 0.0 2.6 0.00 0.00 0.00 94 1007.9
20260507031043 53 265 0.9 2.6 0.00 0.00 0.00 94 1007.8
20260507030538 53 12 0.0 1.7 0.00 0.00 0.00 94 1007.7
20260507030052 53 12 0.0 1.7 0.00 0.00 0.00 94 1007.7
20260507025538 53 12 0.0 1.7 0.00 0.00 0.00 94 1007.7
20260507025039 53 12 0.0 1.7 0.00 0.00 0.00 94 1007.8
20260507024549 53 12 0.0 1.7 0.00 0.00 0.00 94 1007.7
20260507024040 53 12 0.0 1.7 0.00 0.00 0.00 94 1007.5
20260507023543 53 0 0.0 1.7 0.00 0.00 0.00 94 1007.6
20260507023049 53 12 0.0 1.7 0.00 0.00 0.00 94 1007.7
20260507022539 53 12 0.0 1.7 0.00 0.00 0.00 94 1007.8
20260507022038 53 12 0.0 1.7 0.00 0.00 0.00 94 1007.8
20260507021559 53 0 0.0 1.7 0.00 0.00 0.00 94 1007.8
20260507021039 53 0 0.0 1.7 0.00 0.00 0.00 94 1007.8
20260507020539 53 0 0.0 1.7 0.00 0.00 0.00 94 1007.9
20260507020048 53 0 0.0 1.7 0.00 0.00 0.00 94 1008.0
20260507015540 53 0 0.0 1.7 0.00 0.00 0.00 94 1008.1
20260507015039 53 12 0.0 1.7 0.00 0.00 0.00 94 1008.2
20260507014547 53 0 0.0 1.7 0.00 0.00 0.00 94 1008.2
20260507014039 53 0 0.0 1.7 0.00 0.00 0.00 94 1008.3
20260507013538 54 0 0.0 1.7 0.00 0.00 0.00 94 1008.3
20260507013047 53 0 0.0 1.7 0.00 0.00 0.00 94 1008.5
20260507012541 54 114 0.0 1.7 0.00 0.00 0.00 94 1008.5
20260507012038 54 0 0.9 1.7 0.00 0.00 0.00 94 1008.5
20260507011600 54 23 0.0 1.7 0.00 0.00 0.00 94 1008.8
20260507011039 54 23 0.9 1.7 0.00 0.00 0.00 94 1008.7
20260507010539 54 23 0.0 1.7 0.00 0.00 0.00 94 1008.7
20260507010048 54 75 0.9 3.5 0.00 0.00 0.00 94 1008.8
20260507005539 54 0 0.9 3.5 0.00 0.00 0.00 94 1008.7
20260507005041 54 1 0.0 2.6 0.00 0.00 0.00 94 1008.8
20260507004553 54 347 0.0 2.6 0.00 0.00 0.00 94 1008.7
20260507004040 54 14 0.0 1.7 0.00 0.00 0.00 94 1008.7
20260507003539 54 14 0.0 2.6 0.00 0.00 0.00 94 1008.7
20260507003053 54 13 0.9 3.5 0.00 0.00 0.00 94 1008.6
20260507002539 54 13 0.9 3.5 0.00 0.00 0.00 94 1008.6
20260507002038 54 325 0.0 2.6 0.00 0.00 0.00 94 1008.5
20260507001553 54 325 0.0 1.7 0.00 0.00 0.00 94 1008.5
20260507001038 54 324 0.0 1.7 0.00 0.00 0.00 94 1008.6
20260507000539 54 0 0.0 4.3 0.00 0.00 0.00 94 1008.6
20260507000054 54 0 0.0 4.3 0.00 0.00 0.00 93 1008.6
20260506235539 54 324 0.0 1.7 0.00 0.00 0.00 93 1008.5
20260506235038 54 11 0.0 1.7 0.00 0.00 0.00 93 1008.5
20260506234605 54 0 0.0 1.7 0.00 0.00 0.00 93 1008.5
20260506234039 54 10 0.0 1.7 0.00 0.00 0.00 93 1008.5
20260506233539 54 0 0.0 1.7 0.00 0.00 0.00 93 1008.4
20260506233052 54 10 0.0 1.7 0.00 0.00 0.00 94 1008.4
20260506232540 54 0 0.0 2.6 0.00 0.00 0.00 93 1008.2
20260506232038 54 0 0.0 2.6 0.00 0.00 0.00 93 1008.2
20260506231549 54 6 0.0 1.7 0.00 0.00 0.00 93 1008.5
20260506231040 54 6 0.0 1.7 0.00 0.00 0.00 93 1008.3
20260506230539 54 0 0.0 1.7 0.00 0.00 0.00 93 1008.3
20260506230056 54 0 0.0 1.7 0.00 0.00 0.00 93 1008.3
20260506225538 54 0 0.0 1.7 0.00 0.00 0.00 93 1008.3
20260506225038 54 70 0.0 2.6 0.00 0.00 0.00 93 1008.5
20260506224550 54 0 0.0 2.6 0.00 0.00 0.00 93 1008.5
20260506224039 54 0 0.0 2.6 0.00 0.00 0.00 92 1008.6
20260506223539 54 0 0.0 0.9 0.00 0.00 0.00 93 1008.6
20260506223056 54 0 0.0 0.9 0.00 0.00 0.00 93 1008.6
20260506222539 54 0 0.0 1.7 0.00 0.00 0.00 92 1008.9
20260506222043 54 0 0.0 1.7 0.00 0.00 0.00 92 1008.7
20260506221553 54 184 0.0 1.7 0.00 0.00 0.00 92 1009.0
20260506221113 55 0 0.0 1.7 0.00 0.00 0.00 92 1008.9
20260506220539 55 0 0.0 1.7 0.00 0.00 0.00 92 1009.0
20260506220053 55 184 0.0 2.6 0.00 0.00 0.00 92 1009.1
20260506215539 55 0 0.0 2.6 0.00 0.00 0.00 92 1009.3
20260506215038 55 184 0.0 2.6 0.00 0.00 0.00 91 1009.2
20260506214551 55 278 0.0 2.6 0.00 0.00 0.00 91 1009.2
20260506214040 55 0 0.0 1.7 0.00 0.00 0.00 91 1009.0
20260506213539 55 0 0.0 1.7 0.00 0.00 0.00 91 1009.1